"Pseudo-MPEC" for P20SCgd

Created 2019 Oct 16 18:07:13 UT using Find_Orb

Click here for an explanation of pseudo-MPECs

 
 Astrometry: 
     P20SCgd  C2017 09 169!R`mN[uBkh.=WJAstrometryXVJ+5u8BXY1Ex8C%+xWll`'A(L/F51
     P20SCgd  C2017 09 16jCAnVwa39TUq3Aq13nj?Gembl4D?w5)rpZ];4lg!3^fG,W@S3+FuF51
     P20SCgd  C2017 09 16Q4sJf.g*l_Tns7c-^PbqhOru`redacted;8(sw)H)qAS]*@BPvDyF51
     P20SCgd  C2017 09 25h-aL8#w,pUlb8?:ugCl/v*mqLCQAPD(kp@IHGUVHZngNi/q6H@e?F51
     P20SCgd  C2017 09 25l.pHOmWF=xoeyJ]UL$nFm#r)u@#`9oHcw=e.=(`2n_7Qo=Is1p@hF51
     P20SCgd  C2017 09 25h$=b'WUQ%I[4eyKe0eVZte-_5'(W+E?g#tr(lA_(UJclick[KO\:F51
     P20SCgd  C2017 09 25WRN+=[D-cLdHL^i)2ae%($a7(BcXByrSQG^H\)Uy/tH52kDS*#[.F51
     P20SCgd  C2017 09 25dMk,6I)iu\@vuBYXRXgLZ#^Lu\%Y`:B$A3e1\n1*t.%=g]Iy%uZ\F51
     P20SCgd  C2017 09 253`WI?7c33hUFSf\!gm+;!e2BH[BM0VcwpAG520HERWE_D'`eNlPWF51
     P20SCgd  C2017 09 26mLYNna_$J\tE]c1nf0CU`A6F,elgo#ZA7.jxGn*Cg`35LxjpSPkDF51
     P20SCgd  C2017 09 26PxcC?XSS7aCicllG5nhu[XYHLgx=1N;tK4,Lg_=))-luy9dG'9(_F51
     P20SCgd  C2017 09 26;-g)__:hTh9iN?V3]_pj+kCx/D#L?rB':K@y?.SaHB5ASI$l?HxeF51
     P20SCgd  C2018 08 18kvN5VQPJ^1d0Qc)`kb9)lO.8IVj4Akwn-'l8\Vjy_P;Pl.1uT`]mF51
     P20SCgd  C2018 08 18cn]Qphere$naVbI]ZoPK@odJdos7M@ut*C2[9j)TFk#^%r4uwTj$F51
     P20SCgd  C2018 08 18U1@Nk1U1`*o)+v,4Q-Z.k_[Y[23KNkZ_ebPPr7e@rp=X_He?V0$kF51
     P20SCgd  C2018 08 18i9$V?R!yl@bvq48.6X(bNy@3G`,Xp1I:$MpCZLCLl_csoKcM.K!-F51
     P20SCgd  C2019 06 29kiUQug`6ef.Rl+X_DZ=O(6+$wQG,\vs^]dTH\A043lL`L)X18$!DF51
     P20SCgd  C2019 06 29\xu]+forWZ$p=BJ?$EO83E^_,1BgSVE.T(-)?8ayp1pm5iq[?dnHF51
     P20SCgd  C2019 06 29-$Y*B]SFl-(S7GER!ocKbx;ZY4D'RFiWZsSZ0,V:b/Q0.)e$F6fDF51
     P20SCgd  C2019 09 17QX?x9rE\)%/6_tC@P7(:hlHKWKnmoyG'?Fukk1tpA0/;-OEDX9fJF51
     P20SCgd  C2019 09 177(BbPi2)7mH7B9(TgxOR-j_7i*o)JsEbUA$_1ji879Z+AhLs=$Z-F51
     P20SCgd  C2019 09 17KQ@ZLnYh#Gce7Rg)CZ(U,UNJ3c1Q4bSexplanation/BWUHZVoCAF51
     P20SCgd  C2019 09 28.19744 22 18 19.19 +23 23 13.6    ~A9BM 21.4 GVNEOCPG96
     P20SCgd  C2019 09 28.20309 22 18 18.80 +23 23 12.3    ~A9BM 21.1 GVNEOCPG96
     P20SCgd  C2019 09 28.20874 22 18 18.41 +23 23 10.9    ~A9BM 20.9 GVNEOCPG96
     P20SCgd  C2019 09 28.21438 22 18 18.03 +23 23 09.6    ~A9BM 21.1 GVNEOCPG96
     P20SCgd  C2019 10 08aO/jsC.Uy;0'?DjPOYm)BicyE13![WBB`+f3Oui(jy//wT9Mg,0/F52
     P20SCgd  C2019 10 08vMbA8uvs,;m$(-WI5!#D0R#'?d7N`dj[#fWPLOl?-N:_I)`(J'ZMF52
     P20SCgd  C2019 10 08.7(QsfA9wreM_4F9O+XkC`;JAh2uZ2WeQP,LC)x/0nEaNG#,8FG-F52
     P20SCgd  C2019 10 09.08353 22 06 39.21 +22 38 13.5    ~A92q       VNEOCPI52
     P20SCgd  C2019 10 09.09020 22 06 38.81 +22 38 12.3    ~A92q       VNEOCPI52
     P20SCgd  C2019 10 09.09353 22 06 38.57 +22 38 11.2    ~A92q 20.1 GVNEOCPI52
     P20SCgd 8C2019 10 09pBP]qdINOY['?%eOv3t8tH:x/,D0:oRjRIT!w]V0s738xAl2_,S^094
     P20SCgd 8C2019 10 09'_)7yxCC*FQ_Dio.b,AT#tuo,k.ldaQkG4]fxJM)/Kr%Y41UhhOd094
     P20SCgd 8C2019 10 0985UF'?b2ec=f(;6/y4q%H,j#N3R8KAHqA35`vib:VE/FT.FCZ%k@094
     P20SCgd KC2019 10 09JHn]Ta.ucYw*mfECV-72RG2a/3*i8O/wXSQ?;L(u#fBj1?FsWXK$Z84
     P20SCgd KC2019 10 09Df3WJWJy@@Pxt'q5-yd1@`!+!$]3P;Wp(5A_9@YqXSRPC:)-%IHUZ84
     P20SCgd KC2019 10 09N'3e:=K4.:UnSON3,@-\cG@KLis,x!g2f[Ol,cGrHTHPgH].UsKVZ84
     P20SCgd KC2019 10 099v(]Ih[JUGjjQ6QnkRg9,ijtk'\GT-Wn^:+-(f28hV(?m33^eTQrZ84

Station data:
(094) Crimea-Simeïs  (N44.403089 E33.997400)  Ukraine. 1.0-m Ritchey-Chrétien.
(F51) Pan-STARRS 1, Haleakala  (N20.707235 W156.255910)  US/Hawaii.
   Observers N. Primak, A. Schultz, S. Watters, J. Thiel, T. Goggia. Measurer
   PS1 Science Consortium. 1.8-m Ritchey-Chrétien + CCD.
(F52) Pan-STARRS 2, Haleakala  (N20.707384 W156.255910)  US/Hawaii. 1.8-m
   Ritchey-Chrétien + CCD.
(G96) Mt. Lemmon Survey  (N32.442754 W110.788720)  US/Arizona.  Observers T.
   A. Pruyne, B. M. Africano, E. J. Christensen, G. A. Farneth, D. C. Fuls,
   A. R. Gibbs, A. D. Grauer, H. Groeller, J. A. Johnson, R. A. Kowalski, S.
   M. Larson, G. J. Leonard, R. G. Matheny, D. Rankin, R. L. Seaman, F. C.
   Shelly. 1.5-m reflector + 10K CCD.
(I52) Steward Observatory, Mt. Lemmon Station  (N32.442547 W110.788920)
   US/Arizona.  Observers T. A. Pruyne, B. M. Africano, E. J. Christensen, G.
   A. Farneth, D. C. Fuls, A. R. Gibbs, A. D. Grauer, H. Groeller, J. A.
   Johnson, R. A. Kowalski, S. M. Larson, G. J. Leonard, R. G. Matheny, D.
   Rankin, R. L. Seaman, F. C. Shelly. 1.0-m reflector + CCD.
(Z84) Calar Alto-Schmidt  (N37.224049 W2.548210)  Spain.

Orbital elements:  P20SCgd
   Perihelion 2021 Jan 14.025829 +/- 0.00951 TT =  0:37:11 (JD 2459228.525829)
Epoch 2019 Oct  9.0 TT = JDT 2458765.5   Sa: 0.5809           AutoNEOCP
M 358.06510413 +/- 0.0009           (J2000 ecliptic)
n   0.00417880 +/- 1.89e-6          Peri.   90.98498 +/- 0.0014
a  38.1740112 +/- 0.0115            Node     6.95069 +/- 0.000037
e   0.8878162 +/- 3.25e-5           Incl.  120.87021 +/- 0.00006
P 235.86                   H 13.7   G  0.15   U  3.9  
q 4.28250492 +/- 5.86e-5    Q 72.0655175 +/- 0.0229
From 39 observations 2017 Sept. 16-2019 Oct. 9; mean residual 0".29
Residuals in arcseconds: 
170916 F51  .95-  .43-    180818 F51  .08+  .05-    191008 F52  .05+  .17+    
170916 F51  .22+  .26-    180818 F51  .00   .08+    191008 F52  .40-  .14+    
170916 F51  .05-  .18-    180818 F51  .11+  .17+    191008 F52  .21-  .08+    
170925 F51  .38+  .00     190629 F51  .03+  .12+    191009 I52  .02+  .87-    
170925 F51  .28+  .14+    190629 F51  .04+  .04+    191009 I52  .11+  .28-    
170925 F51  .04+  .29+    190629 F51  .03+  .02+    191009 I52  .40-  .48-    
170925 F51  .38-  .23-    190917 F51  .16+  .07-    191009 094  .82+  .46+    
170925 F51  .26+  .74+    190917 F51  .20+  .04+    191009 094  .85+  .35+    
170925 F51  .18+  .02+    190917 F51  .16-  .07-    191009 094  .46+  .14+    
170926 F51  .25+  .06+    190928 G96  .24-  .16+    191009 Z84  .13-  .03-    
170926 F51  .18+  .02+    190928 G96  .28-  .10+    191009 Z84  .13-  .03+    
170926 F51  .14-  .15+    190928 G96  .32-  .05-    191009 Z84  .30-  .20+    
180818 F51  .01+  .01-    190928 G96  .23-  .10-    191009 Z84  .19-  .11-    

Ephemerides (geocentric):
Date (UTC) HH   RA              Dec         delta   r     elong  mag " sig PA
---- -- -- --  -------------   -----------  ------ ------ -----  --- ---- ---
2019 10 16 18  21 59 20.926   +22 02 26.15  4.8278 5.5113 129.1 21.4 .035 155
2019 10 16 19  21 59 18.684   +22 02 14.15  4.8281 5.5111 129.1 21.4 .035 155
2019 10 16 20  21 59 16.444   +22 02 02.14  4.8284 5.5110 129.0 21.4 .036 155
2019 10 16 21  21 59 14.205   +22 01 50.13  4.8286 5.5108 129.0 21.4 .036 155
2019 10 16 22  21 59 11.968   +22 01 38.12  4.8289 5.5106 129.0 21.4 .036 155
2019 10 16 23  21 59 09.733   +22 01 26.10  4.8292 5.5104 128.9 21.4 .036 155
2019 10 17 00  21 59 07.499   +22 01 14.09  4.8295 5.5102 128.9 21.4 .036 155
2019 10 17 01  21 59 05.267   +22 01 02.07  4.8297 5.5100 128.9 21.4 .036 155
2019 10 17 02  21 59 03.036   +22 00 50.05  4.8300 5.5098 128.8 21.4 .036 155
2019 10 17 03  21 59 00.807   +22 00 38.02  4.8303 5.5096 128.8 21.4 .036 155
2019 10 17 04  21 58 58.580   +22 00 26.00  4.8306 5.5094 128.7 21.4 .036 155
2019 10 17 05  21 58 56.354   +22 00 13.97  4.8309 5.5092 128.7 21.4 .036 155
2019 10 17 06  21 58 54.130   +22 00 01.94  4.8311 5.5091 128.7 21.4 .036 155
2019 10 17 07  21 58 51.907   +21 59 49.90  4.8314 5.5089 128.6 21.4 .037 155
2019 10 17 08  21 58 49.686   +21 59 37.87  4.8317 5.5087 128.6 21.4 .037 155
2019 10 17 09  21 58 47.466   +21 59 25.83  4.8320 5.5085 128.5 21.4 .037 155
2019 10 17 10  21 58 45.248   +21 59 13.79  4.8323 5.5083 128.5 21.4 .037 155
2019 10 17 11  21 58 43.032   +21 59 01.75  4.8326 5.5081 128.5 21.4 .037 155
2019 10 17 12  21 58 40.817   +21 58 49.70  4.8328 5.5079 128.4 21.4 .037 155
2019 10 17 13  21 58 38.604   +21 58 37.65  4.8331 5.5077 128.4 21.4 .037 155
2019 10 17 14  21 58 36.392   +21 58 25.61  4.8334 5.5075 128.4 21.4 .037 154
2019 10 17 15  21 58 34.182   +21 58 13.55  4.8337 5.5073 128.3 21.4 .037 154
2019 10 17 16  21 58 31.973   +21 58 01.50  4.8340 5.5072 128.3 21.4 .037 154
2019 10 17 17  21 58 29.766   +21 57 49.44  4.8343 5.5070 128.2 21.4 .037 154
2019 10 17 18  21 58 27.561   +21 57 37.39  4.8345 5.5068 128.2 21.4 .038 154
2019 10 17 19  21 58 25.357   +21 57 25.33  4.8348 5.5066 128.2 21.4 .038 154
2019 10 17 20  21 58 23.155   +21 57 13.26  4.8351 5.5064 128.1 21.4 .038 154
2019 10 17 21  21 58 20.955   +21 57 01.20  4.8354 5.5062 128.1 21.4 .038 154
2019 10 17 22  21 58 18.756   +21 56 49.13  4.8357 5.5060 128.0 21.4 .038 154
2019 10 17 23  21 58 16.558   +21 56 37.07  4.8360 5.5058 128.0 21.4 .038 154
2019 10 18 00  21 58 14.363   +21 56 25.00  4.8363 5.5056 128.0 21.4 .038 154
2019 10 18 01  21 58 12.168   +21 56 12.92  4.8365 5.5054 127.9 21.4 .038 154
2019 10 18 02  21 58 09.976   +21 56 00.85  4.8368 5.5052 127.9 21.4 .038 154
2019 10 18 03  21 58 07.785   +21 55 48.77  4.8371 5.5051 127.8 21.4 .038 154
2019 10 18 04  21 58 05.596   +21 55 36.69  4.8374 5.5049 127.8 21.4 .038 154
2019 10 18 05  21 58 03.408   +21 55 24.61  4.8377 5.5047 127.8 21.4 .039 154
2019 10 18 06  21 58 01.222   +21 55 12.53  4.8380 5.5045 127.7 21.4 .039 154
2019 10 18 07  21 57 59.037   +21 55 00.45  4.8383 5.5043 127.7 21.4 .039 154
2019 10 18 08  21 57 56.854   +21 54 48.36  4.8386 5.5041 127.7 21.4 .039 154
2019 10 18 09  21 57 54.673   +21 54 36.27  4.8389 5.5039 127.6 21.4 .039 154
2019 10 18 10  21 57 52.493   +21 54 24.18  4.8392 5.5037 127.6 21.4 .039 154
2019 10 18 11  21 57 50.315   +21 54 12.09  4.8395 5.5035 127.5 21.4 .039 154
2019 10 18 12  21 57 48.138   +21 54 00.00  4.8397 5.5033 127.5 21.4 .039 154
2019 10 18 13  21 57 45.963   +21 53 47.90  4.8400 5.5032 127.5 21.4 .039 154
2019 10 18 14  21 57 43.790   +21 53 35.80  4.8403 5.5030 127.4 21.4 .039 154
2019 10 18 15  21 57 41.618   +21 53 23.70  4.8406 5.5028 127.4 21.4 .039 154
2019 10 18 16  21 57 39.448   +21 53 11.60  4.8409 5.5026 127.3 21.4 .040 154
2019 10 18 17  21 57 37.279   +21 52 59.50  4.8412 5.5024 127.3 21.4 .040 154